Time,TemperatureF,DewpointF,PressureIn,WindDirection,WindDirectionDegrees,WindSpeedMPH,WindSpeedGustMPH,Humidity,HourlyPrecipIn,Conditions,Clouds,dailyrainin,SolarRadiationWatts/m^2,SoftwareType,DateUTC
2013-07-08 00:02:00,75.0,45.0,-100.00,NNW,346,0.0,0.0,35,0.00,,,0.00,0.000000,,2013-07-08 07:02:00,
2013-07-08 00:22:00,73.0,46.0,-100.00,North,359,0.0,0.0,38,0.00,,,-99.99,0.000000,,2013-07-08 07:22:00,
2013-07-08 00:34:00,73.0,46.0,-100.00,North,359,0.0,0.0,38,0.00,,,-99.99,0.000000,,2013-07-08 07:34:00,
2013-07-08 00:44:00,73.0,46.0,-100.00,North,359,0.0,0.0,38,0.00,,,-99.99,0.000000,,2013-07-08 07:44:00,
2013-07-08 00:53:00,73.0,46.0,-100.00,North,359,0.0,0.0,38,0.00,,,-99.99,0.000000,,2013-07-08 07:53:00,
2013-07-08 01:02:00,73.0,46.0,-100.00,North,359,0.0,0.0,38,0.00,,,-99.99,0.000000,,2013-07-08 08:02:00,
2013-07-08 01:22:00,71.0,45.0,-100.00,North,358,0.0,0.0,39,0.00,,,0.00,0.000000,,2013-07-08 08:22:00,
2013-07-08 01:33:00,71.0,45.0,-100.00,North,358,0.0,0.0,39,0.00,,,0.00,0.000000,,2013-07-08 08:33:00,
2013-07-08 01:42:00,71.0,45.0,-100.00,North,358,0.0,0.0,39,0.00,,,0.00,0.000000,,2013-07-08 08:42:00,
2013-07-08 01:53:00,71.0,45.0,-100.00,North,358,0.0,0.0,39,0.00,,,0.00,0.000000,,2013-07-08 08:53:00,
2013-07-08 02:01:00,71.0,45.0,-100.00,North,358,0.0,0.0,39,0.00,,,0.00,0.000000,,2013-07-08 09:01:00,
2013-07-08 02:22:00,69.0,44.0,-100.00,North,354,0.0,0.0,41,0.00,,,0.00,0.000000,,2013-07-08 09:22:00,
2013-07-08 02:34:00,69.0,44.0,-100.00,North,354,0.0,0.0,41,0.00,,,0.00,0.000000,,2013-07-08 09:34:00,
2013-07-08 02:43:00,69.0,44.0,-100.00,North,354,0.0,0.0,41,0.00,,,0.00,0.000000,,2013-07-08 09:43:00,
2013-07-08 02:53:00,69.0,44.0,-100.00,North,354,0.0,0.0,41,0.00,,,0.00,0.000000,,2013-07-08 09:53:00,
2013-07-08 03:01:00,69.0,44.0,-100.00,North,354,0.0,0.0,41,0.00,,,0.00,0.000000,,2013-07-08 10:01:00,
2013-07-08 03:22:00,69.0,46.0,-100.00,North,353,0.0,0.0,43,0.00,,,0.00,0.000000,,2013-07-08 10:22:00,
2013-07-08 03:34:00,69.0,46.0,-100.00,North,353,0.0,0.0,43,0.00,,,0.00,0.000000,,2013-07-08 10:34:00,
2013-07-08 03:43:00,69.0,46.0,-100.00,North,353,0.0,0.0,43,0.00,,,0.00,0.000000,,2013-07-08 10:43:00,
2013-07-08 03:53:00,69.0,46.0,-100.00,North,353,0.0,0.0,43,0.00,,,0.00,0.000000,,2013-07-08 10:53:00,
2013-07-08 04:02:00,69.0,46.0,-100.00,North,353,0.0,0.0,43,0.00,,,0.00,0.000000,,2013-07-08 11:02:00,
2013-07-08 04:33:00,68.0,46.0,-100.00,WNW,299,0.0,0.0,45,0.00,,,0.00,0.000000,,2013-07-08 11:33:00,
2013-07-08 04:43:00,68.0,46.0,-100.00,WNW,299,0.0,0.0,45,0.00,,,0.00,0.000000,,2013-07-08 11:43:00,
2013-07-08 04:53:00,68.0,46.0,-100.00,WNW,299,0.0,0.0,45,0.00,,,0.00,0.000000,,2013-07-08 11:53:00,
2013-07-08 05:01:00,68.0,46.0,-100.00,WNW,299,0.0,0.0,45,0.00,,,0.00,0.000000,,2013-07-08 12:01:00,
2013-07-08 05:22:00,67.0,46.0,-100.00,NNW,348,0.0,0.0,47,0.00,,,0.00,0.000000,,2013-07-08 12:22:00,
2013-07-08 05:34:00,67.0,46.0,-100.00,NNW,348,0.0,0.0,47,0.00,,,0.00,0.000000,,2013-07-08 12:34:00,
2013-07-08 05:43:00,67.0,46.0,-100.00,NNW,348,0.0,0.0,47,0.00,,,0.00,0.000000,,2013-07-08 12:43:00,
2013-07-08 05:53:00,67.0,46.0,-100.00,NNW,348,0.0,0.0,47,0.00,,,0.00,0.000000,,2013-07-08 12:53:00,
2013-07-08 06:01:00,67.0,46.0,-100.00,NNW,348,0.0,0.0,47,0.00,,,0.00,0.000000,,2013-07-08 13:01:00,
2013-07-08 06:22:00,66.0,46.0,-100.00,NNW,342,0.0,0.0,48,0.00,,,0.00,11.000000,,2013-07-08 13:22:00,
2013-07-08 06:33:00,66.0,46.0,-100.00,NNW,342,0.0,0.0,48,0.00,,,0.00,11.000000,,2013-07-08 13:33:00,
2013-07-08 06:42:00,66.0,46.0,-100.00,NNW,342,0.0,0.0,48,0.00,,,0.00,11.000000,,2013-07-08 13:42:00,
2013-07-08 06:53:00,66.0,46.0,-100.00,NNW,342,0.0,0.0,48,0.00,,,0.00,11.000000,,2013-07-08 13:53:00,
2013-07-08 07:01:00,66.0,46.0,-100.00,NNW,342,0.0,0.0,48,0.00,,,0.00,11.000000,,2013-07-08 14:01:00,
2013-07-08 07:23:00,68.0,47.0,-100.00,NNW,347,0.0,0.0,47,0.00,,,0.00,43.000000,,2013-07-08 14:23:00,
2013-07-08 07:34:00,68.0,47.0,-100.00,NNW,347,0.0,0.0,47,0.00,,,0.00,43.000000,,2013-07-08 14:34:00,
2013-07-08 07:43:00,68.0,47.0,-100.00,NNW,347,0.0,0.0,47,0.00,,,0.00,43.000000,,2013-07-08 14:43:00,
2013-07-08 07:53:00,68.0,47.0,-100.00,NNW,347,0.0,0.0,47,0.00,,,0.00,43.000000,,2013-07-08 14:53:00,
2013-07-08 08:01:00,68.0,47.0,-100.00,NNW,347,0.0,0.0,47,0.00,,,0.00,43.000000,,2013-07-08 15:01:00,
2013-07-08 08:22:00,72.0,48.0,-100.00,North,354,0.0,0.0,43,0.00,,,0.00,133.000000,,2013-07-08 15:22:00,
2013-07-08 08:33:00,72.0,48.0,-100.00,North,354,0.0,0.0,43,0.00,,,0.00,133.000000,,2013-07-08 15:33:00,
2013-07-08 08:43:00,72.0,48.0,-100.00,North,354,0.0,0.0,43,0.00,,,0.00,133.000000,,2013-07-08 15:43:00,
2013-07-08 08:53:00,72.0,48.0,-100.00,North,354,0.0,0.0,43,0.00,,,0.00,133.000000,,2013-07-08 15:53:00,
2013-07-08 09:22:00,85.0,51.0,-100.00,North,9,0.0,0.0,31,-99.99,,,0.00,562.000000,,2013-07-08 16:22:00,
2013-07-08 09:34:00,85.0,51.0,-100.00,North,9,0.0,0.0,31,-99.99,,,0.00,562.000000,,2013-07-08 16:34:00,
2013-07-08 09:43:00,85.0,51.0,-100.00,North,9,0.0,0.0,31,-99.99,,,0.00,562.000000,,2013-07-08 16:43:00,
2013-07-08 09:56:00,85.0,51.0,-100.00,North,9,0.0,0.0,31,-99.99,,,0.00,562.000000,,2013-07-08 16:56:00,
2013-07-08 10:02:00,85.0,51.0,-100.00,North,9,0.0,0.0,31,-99.99,,,0.00,562.000000,,2013-07-08 17:02:00,
2013-07-08 10:29:00,93.0,52.0,-100.00,SSE,166,0.0,0.0,25,0.00,,,0.00,691.000000,,2013-07-08 17:29:00,
2013-07-08 10:37:00,93.0,52.0,-100.00,SSE,166,0.0,0.0,25,0.00,,,0.00,691.000000,,2013-07-08 17:37:00,
2013-07-08 10:48:00,93.0,52.0,-100.00,SSE,166,0.0,0.0,25,0.00,,,0.00,691.000000,,2013-07-08 17:48:00,
2013-07-08 10:54:00,93.0,52.0,-100.00,SSE,166,0.0,0.0,25,0.00,,,0.00,691.000000,,2013-07-08 17:54:00,
2013-07-08 11:01:00,93.0,52.0,-100.00,SSE,166,0.0,0.0,25,0.00,,,0.00,691.000000,,2013-07-08 18:01:00,
2013-07-08 11:03:00,98.0,49.0,-100.00,SSE,154,0.0,0.0,19,0.00,,,0.00,870.000000,,2013-07-08 18:03:00,
2013-07-08 11:45:00,98.0,49.0,-100.00,SSE,154,0.0,0.0,19,0.00,,,0.00,870.000000,,2013-07-08 18:45:00,
2013-07-08 11:54:00,98.0,49.0,-100.00,SSE,154,0.0,0.0,19,0.00,,,0.00,870.000000,,2013-07-08 18:54:00,
2013-07-08 12:36:00,100.0,47.0,-100.00,NW,323,0.0,0.0,17,0.00,,,0.00,949.000000,,2013-07-08 19:36:00,
2013-07-08 12:41:00,100.0,47.0,-100.00,NW,323,0.0,0.0,17,0.00,,,0.00,949.000000,,2013-07-08 19:41:00,
2013-07-08 12:55:00,100.0,47.0,-100.00,NW,323,0.0,0.0,17,0.00,,,0.00,949.000000,,2013-07-08 19:55:00,
2013-07-08 13:02:00,100.0,47.0,-100.00,NW,323,0.0,0.0,17,0.00,,,0.00,949.000000,,2013-07-08 20:02:00,
2013-07-08 13:03:00,100.0,44.0,-100.00,NNE,21,0.0,0.0,15,0.00,,,0.00,979.000000,,2013-07-08 20:03:00,
2013-07-08 13:47:00,100.0,44.0,-100.00,NNE,21,0.0,0.0,15,0.00,,,0.00,979.000000,,2013-07-08 20:47:00,
2013-07-08 14:03:00,104.0,45.0,-100.00,East,94,0.0,0.0,14,0.00,,,0.00,952.000000,,2013-07-08 21:03:00,
2013-07-08 14:46:00,104.0,45.0,-100.00,East,94,0.0,0.0,14,0.00,,,0.00,952.000000,,2013-07-08 21:46:00,
2013-07-08 14:55:00,104.0,45.0,-100.00,East,94,0.0,0.0,14,0.00,,,0.00,952.000000,,2013-07-08 21:55:00,
2013-07-08 15:03:00,103.0,43.0,-100.00,ESE,117,0.0,0.0,13,0.00,,,0.00,863.000000,,2013-07-08 22:03:00,
2013-07-08 15:57:00,103.0,43.0,-100.00,ESE,117,0.0,0.0,13,0.00,,,0.00,863.000000,,2013-07-08 22:57:00,
2013-07-08 16:03:00,103.0,43.0,-100.00,East,79,0.0,0.0,13,0.00,,,0.00,715.000000,,2013-07-08 23:03:00,
2013-07-08 16:35:00,103.0,43.0,-100.00,East,79,0.0,0.0,13,0.00,,,0.00,715.000000,,2013-07-08 23:35:00,
2013-07-08 16:57:00,103.0,43.0,-100.00,East,79,0.0,0.0,13,0.00,,,0.00,715.000000,,2013-07-08 23:57:00,
2013-07-08 17:03:00,98.0,42.0,-100.00,ENE,66,0.0,0.0,15,0.00,,,0.00,418.000000,,2013-07-09 00:03:00,
2013-07-08 17:44:00,98.0,42.0,-100.00,ENE,66,0.0,0.0,15,0.00,,,0.00,418.000000,,2013-07-09 00:44:00,
2013-07-08 18:03:00,94.0,43.0,-100.00,East,94,0.0,0.0,17,0.00,,,0.00,217.000000,,2013-07-09 01:03:00,
2013-07-08 18:37:00,94.0,43.0,-100.00,East,94,0.0,0.0,17,0.00,,,0.00,217.000000,,2013-07-09 01:37:00,
2013-07-08 18:46:00,94.0,43.0,-100.00,East,94,0.0,0.0,17,0.00,,,0.00,217.000000,,2013-07-09 01:46:00,
2013-07-08 18:58:00,94.0,43.0,-100.00,East,94,0.0,0.0,17,0.00,,,0.00,217.000000,,2013-07-09 01:58:00,
2013-07-08 19:58:00,88.0,46.0,-100.00,WNW,291,0.0,0.0,23,0.00,,,0.00,47.000000,,2013-07-09 02:58:00,
2013-07-08 21:02:00,81.0,44.0,-100.00,NW,320,0.0,0.0,27,0.00,,,0.00,9.000000,,2013-07-09 04:02:00,
2013-07-08 21:22:00,81.0,46.0,-100.00,North,350,0.0,0.0,29,0.00,,,0.00,0.000000,,2013-07-09 04:22:00,
2013-07-08 21:34:00,81.0,46.0,-100.00,North,350,0.0,0.0,29,0.00,,,0.00,0.000000,,2013-07-09 04:34:00,
2013-07-08 21:43:00,81.0,46.0,-100.00,North,350,0.0,0.0,29,0.00,,,0.00,0.000000,,2013-07-09 04:43:00,
2013-07-08 21:53:00,81.0,46.0,-100.00,North,350,0.0,0.0,29,0.00,,,0.00,0.000000,,2013-07-09 04:53:00,
2013-07-08 22:02:00,81.0,46.0,-100.00,North,350,0.0,0.0,29,0.00,,,0.00,0.000000,,2013-07-09 05:02:00,
2013-07-08 22:22:00,79.0,45.0,-100.00,North,359,0.0,0.0,30,0.00,,,0.00,0.000000,,2013-07-09 05:22:00,
2013-07-08 22:34:00,79.0,45.0,-100.00,North,359,0.0,0.0,30,0.00,,,0.00,0.000000,,2013-07-09 05:34:00,
2013-07-08 22:42:00,79.0,45.0,-100.00,North,359,0.0,0.0,30,0.00,,,0.00,0.000000,,2013-07-09 05:42:00,
2013-07-08 22:52:00,79.0,45.0,-100.00,North,359,0.0,0.0,30,0.00,,,0.00,0.000000,,2013-07-09 05:52:00,
2013-07-08 23:01:00,79.0,45.0,-100.00,North,359,0.0,0.0,30,0.00,,,0.00,0.000000,,2013-07-09 06:01:00,
2013-07-08 23:34:00,75.0,46.0,-100.00,NNW,347,0.0,0.0,36,0.00,,,0.00,0.000000,,2013-07-09 06:34:00,
2013-07-08 23:43:00,75.0,46.0,-100.00,NNW,347,0.0,0.0,36,0.00,,,0.00,0.000000,,2013-07-09 06:43:00,
2013-07-08 23:53:00,75.0,46.0,-100.00,NNW,347,0.0,0.0,36,0.00,,,0.00,0.000000,,2013-07-09 06:53:00,